Grosse Ile, MI

7:50 PM EDT on April 23, 2017 (GMT -0400)
Grosse Ile Municipal

Weather History for KONZ - March, 2012

Change the Weather History Date:

Saturday, March 17, 2012

  Actual Average (KDTW) Record (KDTW)
Temperature  
Mean Temperature 58 °F -  
Max Temperature 71 °F 43 °F 75 °F (1945)
Min Temperature 46 °F 26 °F -2 °F (1900)
Degree Days  
Heating Degree Days 6    
Growing Degree Days 8 (Base 50)    
Moisture  
Dew Point 50 °F    
Average Humidity 89    
Maximum Humidity 100    
Minimum Humidity 64    
Precipitation  
Precipitation 0.00 in - - ()
Sea Level Pressure  
Sea Level Pressure 30.16 in    
Wind  
Wind Speed 3 mph (South)    
Max Wind Speed 8 mph    
Max Gust Speed -    
Visibility 4 miles    
Events Fog    
Averages and records for this station are not official NWS values.
T = Trace of Precipitation, MM = Missing Value Source: NWS Daily Summary

Daily Weather History Graph

Daily Weather History Graph

Search for Another Location

Airport or City:

Trip Planner

Search our weather history database for the weather conditions in past years. The results will help you decide how hot, cold, wet, or windy it might be!

Date:

Astronomy

Mar. 17, 2012 Rise Set
Actual Time 7:40 AM EDT 7:42 PM EDT
Civil Twilight 7:12 AM EDT 8:09 PM EDT
Nautical Twilight 6:39 AM EDT 8:42 PM EDT
Astronomical Twilight 6:06 AM EDT 9:15 PM EDT
Moon 4:45 AM EDT (3/17) 3:00 PM EDT (3/17)
Length of Visible Light 12h 57m
Length of Day
12h 01m
Waning Crescent, 23% of the Moon is Illuminated
Mar 17
Waning Crescent
Mar 22
New
Mar 30
First Quarter
Apr 6
Full
Apr 13
Last Quarter

Hourly Weather History & Observations

Time (EDT) Temp. Windchill Dew Point Humidity Pressure Visibility Wind Dir Wind Speed Gust Speed Precip Events Conditions
12:14 AM 48.2 °F - 46.4 °F 93% 30.13 in 3.0 mi Calm Calm - N/A   Clear
12:34 AM 46.4 °F - 46.4 °F 100% 30.13 in 4.0 mi Calm Calm - N/A   Clear
12:54 AM 46.4 °F - 46.4 °F 100% 30.13 in 4.0 mi Calm Calm - N/A   Clear
1:14 AM 46.4 °F - 46.4 °F 100% 30.13 in 1.0 mi Calm Calm - N/A   Mist
1:34 AM 46.4 °F - 46.4 °F 100% 30.13 in 0.8 mi Calm Calm - N/A   Mist
1:54 AM 48.2 °F - 46.4 °F 93% 30.13 in 4.0 mi Calm Calm - N/A   Clear
2:14 AM 48.2 °F - 46.4 °F 93% 30.14 in 7.0 mi Calm Calm - N/A   Clear
2:34 AM 48.2 °F - 46.4 °F 93% 30.13 in 7.0 mi Calm Calm - N/A   Clear
2:53 AM 51.8 °F - 48.2 °F 88% 30.14 in 3.0 mi Calm Calm - N/A   Clear
3:14 AM 53.6 °F - 51.8 °F 94% 30.14 in 1.2 mi Calm Calm - N/A   Mist
3:34 AM 55.4 °F - 53.6 °F 94% 30.14 in 2.5 mi SE 4.6 mph - N/A   Clear
3:54 AM 55.4 °F - 53.6 °F 94% 30.14 in 4.0 mi South 5.8 mph - N/A   Clear
4:14 AM 48.2 °F - 46.4 °F 93% 30.14 in 0.5 mi South 8.1 mph - N/A Fog Fog
4:34 AM 48.2 °F - 46.4 °F 93% 30.15 in 0.5 mi South 6.9 mph - N/A Fog Fog
4:54 AM 46.4 °F 43.5 °F 44.6 °F 93% 30.15 in 0.5 mi South 5.8 mph - N/A Fog Fog
5:14 AM 46.4 °F - 44.6 °F 93% 30.15 in 0.5 mi Calm Calm - N/A Fog Fog
5:34 AM 46.4 °F - 46.4 °F 100% 30.15 in 0.2 mi Calm Calm - N/A Fog Fog
5:54 AM 46.4 °F - 46.4 °F 100% 30.16 in 0.2 mi Calm Calm - N/A Fog Fog
6:14 AM 48.2 °F - 46.4 °F 93% 30.16 in 0.2 mi South 3.5 mph - N/A Fog Fog
6:34 AM 48.2 °F - 46.4 °F 93% 30.17 in 0.2 mi South 3.5 mph - N/A Fog Fog
6:54 AM 46.4 °F 45.2 °F 46.4 °F 100% 30.17 in 0.2 mi SSE 3.5 mph - N/A Fog Fog
7:14 AM 46.4 °F 45.2 °F 46.4 °F 100% 30.18 in 0.2 mi SSE 3.5 mph - N/A Fog Fog
7:34 AM 48.2 °F - 46.4 °F 93% 30.18 in 0.2 mi SSE 3.5 mph - N/A Fog Fog
7:54 AM 48.2 °F - 46.4 °F 93% 30.19 in 0.2 mi SSE 3.5 mph - N/A Fog Fog
8:14 AM 48.2 °F - 46.4 °F 93% 30.19 in 0.2 mi SSE 4.6 mph - N/A Fog Fog
8:34 AM 48.2 °F - 46.4 °F 93% 30.19 in 0.2 mi South 4.6 mph - N/A Fog Fog
8:53 AM 48.2 °F - 46.4 °F 93% 30.19 in 0.2 mi SSE 5.8 mph - N/A Fog Fog
9:14 AM 50.0 °F - 48.2 °F 94% 30.19 in 0.2 mi South 4.6 mph - N/A Fog Fog
9:34 AM 48.2 °F - 48.2 °F 100% 30.19 in 0.2 mi South 4.6 mph - N/A Fog Fog
9:53 AM 48.2 °F - 46.4 °F 93% 30.19 in 0.2 mi SSE 4.6 mph - N/A Fog Fog
10:14 AM 48.2 °F - 48.2 °F 100% 30.19 in 0.2 mi South 3.5 mph - N/A Fog Fog
10:34 AM 48.2 °F - 46.4 °F 93% 30.19 in 0.2 mi South 4.6 mph - N/A Fog Fog
10:54 AM 48.2 °F - 46.4 °F 93% 30.20 in 0.2 mi South 4.6 mph - N/A Fog Fog
11:14 AM 50.0 °F - 48.2 °F 94% 30.20 in 0.2 mi South 4.6 mph - N/A Fog Fog
11:33 AM 51.8 °F - 48.2 °F 88% 30.20 in 0.2 mi South 4.6 mph - N/A Fog Fog
11:54 AM 53.6 °F - 51.8 °F 94% 30.20 in 0.5 mi South 4.6 mph - N/A Fog Fog
12:14 PM 55.4 °F - 53.6 °F 94% 30.20 in 7.0 mi South 5.8 mph - N/A   Scattered Clouds
12:34 PM 57.2 °F - 55.4 °F 94% 30.19 in 10.0 mi SSE 5.8 mph - N/A   Clear
12:54 PM 59.0 °F - 55.4 °F 88% 30.19 in 5.0 mi South 5.8 mph - N/A   Clear
1:14 PM 60.8 °F - 57.2 °F 88% 30.19 in 7.0 mi South 5.8 mph - N/A   Clear
1:33 PM 60.8 °F - 55.4 °F 82% 30.18 in 7.0 mi South 5.8 mph - N/A   Clear
1:54 PM 59.0 °F - 55.4 °F 88% 30.17 in 10.0 mi South 4.6 mph - N/A   Clear
2:14 PM 60.8 °F - 55.4 °F 82% 30.16 in 10.0 mi South 4.6 mph - N/A   Clear
2:34 PM 62.6 °F - 57.2 °F 82% 30.15 in 10.0 mi South 3.5 mph - N/A   Clear
2:54 PM 64.4 °F - 57.2 °F 77% 30.15 in 10.0 mi South 4.6 mph - N/A   Clear
3:13 PM 66.2 °F - 57.2 °F 73% 30.14 in 10.0 mi South 3.5 mph - N/A   Clear
3:34 PM 68.0 °F - 57.2 °F 68% 30.13 in 10.0 mi SSE 5.8 mph - N/A   Clear
3:54 PM 69.8 °F - 57.2 °F 64% 30.13 in 10.0 mi SSE 6.9 mph - N/A   Clear
4:14 PM 69.8 °F - 57.2 °F 64% 30.12 in 10.0 mi SSE 5.8 mph - N/A   Clear
4:34 PM 69.8 °F - 57.2 °F 64% 30.12 in 10.0 mi SSE 4.6 mph - N/A   Clear
4:54 PM 71.6 °F - 59.0 °F 64% 30.11 in 10.0 mi SSE 4.6 mph - N/A   Clear
5:14 PM 71.6 °F - 59.0 °F 64% 30.11 in 10.0 mi SSE 4.6 mph - N/A   Clear
5:34 PM 71.6 °F - 59.0 °F 64% 30.10 in 10.0 mi SSE 4.6 mph - N/A   Clear
5:54 PM 71.6 °F - 59.0 °F 64% 30.10 in 10.0 mi Calm Calm - N/A   Clear
6:14 PM 69.8 °F - 59.0 °F 68% 30.10 in 10.0 mi SSE 3.5 mph - N/A   Clear
6:34 PM 66.2 °F - 57.2 °F 73% 30.10 in 10.0 mi SSE 3.5 mph - N/A   Clear
6:53 PM 64.4 °F - 55.4 °F 73% 30.09 in 10.0 mi Calm Calm - N/A   Clear
7:14 PM 69.8 °F - 57.2 °F 64% 30.09 in 10.0 mi Calm Calm - N/A   Clear
7:34 PM 60.8 °F - 55.4 °F 82% 30.09 in 10.0 mi Calm Calm - N/A   Clear
7:54 PM 57.2 °F - 51.8 °F 82% 30.10 in 10.0 mi Calm Calm - N/A   Clear
8:14 PM 55.4 °F - 51.8 °F 88% 30.10 in 10.0 mi Calm Calm - N/A   Clear
8:34 PM 53.6 °F - 50.0 °F 88% 30.10 in 10.0 mi Calm Calm - N/A   Clear
8:54 PM 51.8 °F - 48.2 °F 88% 30.10 in 10.0 mi SSW 4.6 mph - N/A   Clear
9:14 PM 51.8 °F - 48.2 °F 88% 30.11 in 10.0 mi SW 4.6 mph - N/A   Clear
9:33 PM 50.0 °F - 46.4 °F 87% 30.11 in 7.0 mi SSW 6.9 mph - N/A   Clear
10:34 PM 50.0 °F - 46.4 °F 87% 30.11 in 10.0 mi Calm Calm - N/A   Clear
10:54 PM 50.0 °F - 46.4 °F 87% 30.11 in 7.0 mi Calm Calm - N/A   Clear
11:14 PM 48.2 °F - 46.4 °F 93% 30.11 in 7.0 mi Calm Calm - N/A   Clear
11:34 PM 48.2 °F - 46.4 °F 93% 30.12 in 7.0 mi SSW 5.8 mph - N/A   Clear
11:54 PM 48.2 °F - 46.4 °F 93% 30.12 in 5.0 mi SSW 6.9 mph - N/A   Clear